www.pogodaiklimat.ru

Погода и климат >> Архив погоды >> Южная Африка >> Станция Charters Creek


ПОГОДА на Станции Charters Creek

  • Прогноз погоды на Станции Charters Creek
  • Монитор погоды на Станции Charters Creek

АРХИВ ПОГОДЫ на Станции Charters Creek

Время (UTC), дата Ветер
(напр.,м/с)
 
Видим.   Явления Облачность Т
(С)
Тd
(С)
f
(%)
Тe
(С)
Тes
(С)
Комфортность P
(гПа)
Po
(гПа)
Тmin
(С)
Tmax
(С)
R
(мм)
R24
(мм)
S
(см)
21 18.08 С 5 н/о н/о +19.0 +15.9 82 +20 +20 1021.7 1020.8 +19.0 +23.8
00 19.08 С 5 н/о н/о +18.2 +15.8 86 +18 +18 1019.4 1018.5 +18.2 +23.8
03 19.08 С 5 н/о н/о +17.5 +15.1 86 +17 +17 1018.6 1017.7 +17.5 +23.8
06 19.08 С 6 н/о н/о +18.5 +14.0 75 +19 +19 1019.0 1018.1 +16.6
09 19.08 Ю 5 н/о н/о +24.3 +17.4 65 +28 +28 душно 1021.1 1020.2 +16.6 +26.0
12 19.08 Ю 5 н/о н/о +24.2 +17.3 65 +28 +28 душно 1020.3 1019.4 +16.6 +26.0
15 19.08 Ю 4 н/о н/о +21.5 +16.9 75 +25 +25 комфорт 1022.3 1021.4 +21.5 +26.0
18 19.08 Ю 4 н/о н/о +20.0 +15.7 76 +23 +23 комфорт 1025.1 1024.2 +19.9 +26.0
21 19.08 ЮЗ 3 н/о н/о +19.6 +14.7 73 +22 +22 комфорт 1027.0 1026.1 +19.6 +26.0
00 20.08 ЮЗ 4 н/о н/о +17.8 +13.3 75 +18 +18 1027.9 1027.0 +17.3 +26.0 0.8
03 20.08 ЮЗ 3 н/о н/о +16.4 +13.7 84 +16 +16 1028.3 1027.4 +16.4 +26.0
06 20.08 ЮЗ 3 н/о н/о +18.5 +13.6 73 +19 +19 1029.9 1029.0 +15.8 0.8
09 20.08 Ю 5 н/о н/о +23.9 +10.4 43 +25 +25 комфорт 1030.4 1029.5 +15.8 +23.9
12 20.08 Ю 5 н/о н/о +23.6 +11.8 47 +25 +25 комфорт 1029.1 1028.2 +15.8 +24.5
15 20.08 Ю 4 н/о н/о +19.0 +14.9 77 +20 +20 1030.4 1029.5 +18.4 +24.5
18 20.08 З 4 н/о н/о +15.1 +14.1 94 +14 +14 1031.3 1030.4 +15.1 +24.5 0.4
21 20.08 ЮЗ 2 н/о н/о +15.0 +13.8 93 +15 +15 1031.9 1031.0 +14.5 +24.5
00 21.08 ЮЗ 2 н/о н/о +15.4 +13.9 91 +15 +15 1031.7 1030.8 +14.5 +24.5 0.6
03 21.08 ЮЗ 2 н/о н/о +15.1 +13.1 88 +15 +15 1031.3 1030.4 +14.5 +24.5
06 21.08 ЮЗ 2 н/о н/о +17.5 +13.8 79 +18 +18 1032.5 1031.6 +14.5 0.6
09 21.08 Ю 2 н/о н/о +21.2 +14.7 66 +24 +24 комфорт 1032.5 1031.6 +14.5 +22.8
12 21.08 В 4 н/о н/о +22.7 +15.4 63 +27 +27 душно 1030.6 1029.7 +14.5 +22.9
15 21.08 В 3 н/о н/о +20.5 +14.0 66 +23 +23 комфорт 1030.4 1029.5 +20.5 +22.9
18 21.08 штиль 0 н/о н/о +12.8 +11.3 91 +12 +12 1030.8 1029.9 +12.8 +22.9
21 21.08 З 1 н/о н/о +10.7 +9.6 93 +10 +10 1030.3 1029.4 +10.7 +22.9
00 22.08 штиль 0 н/о н/о +9.9 +8.9 93 +9 +9 1028.9 1028.0 +9.4 +22.9
03 22.08 С 1 н/о н/о +10.5 +9.8 95 +10 +10 1028.1 1027.2 +8.9 +22.9
06 22.08 С 2 н/о н/о +17.2 +13.1 77 +18 +18 1028.6 1027.7 +8.9
09 22.08 СВ 5 н/о н/о +24.0 +15.1 57 +27 +27 жарко 1027.1 1026.2 +8.9 +24.1
12 22.08 С 5 н/о н/о +25.5 +15.9 55 +29 +29 душно 1024.3 1023.4 +8.9 +26.1
15 22.08 С 5 н/о н/о +22.2 +15.6 66 +26 +26 душно 1024.4 1023.5 +22.2 +26.1
18 22.08 С 2 н/о н/о +19.1 +14.8 76 +21 +21 комфорт 1025.8 1024.9 +19.1 +26.1
21 22.08 С 4 н/о н/о +18.0 +13.5 75 +18 +18 1025.5 1024.6 +18.0 +26.1
00 23.08 С 3 н/о н/о +17.5 +13.8 79 +17 +17 1024.7 1023.8 +17.5 +26.1
03 23.08 С 2 н/о н/о +15.3 +13.1 87 +15 +15 1024.6 1023.7 +15.1 +26.1
06 23.08 С 4 н/о н/о +18.0 +13.1 73 +18 +18 1026.2 1025.3 +14.5
09 23.08 СВ 3 н/о н/о +25.6 +15.7 54 +29 +29 душно 1025.5 1024.6 +14.5 +26.4
12 23.08 СВ 4 н/о н/о +28.1 +15.9 47 +31 +31 душно 1023.3 1022.4 +14.5 +28.7 0.4
15 23.08 СВ 1 н/о н/о +23.8 +18.1 70 +28 +28 душно 1024.5 1023.6 +23.8 +28.7
18 23.08 СЗ 1 н/о н/о +16.5 +15.5 94 +17 +17 1026.5 1025.6 +15.7 +28.7 0.4
21 23.08 С 3 н/о н/о +17.6 +15.6 88 +18 +18 1026.8 1025.9 +15.7 +28.7
00 24.08 С 2 н/о н/о +16.0 +14.3 90 +16 +16 1026.2 1025.3 +15.7 +28.7 0.4
06 24.08 СВ 2 н/о н/о +17.4 +16.1 92 +18 +18 1026.9 1026.0 +10.0 0.6
09 24.08 СВ 5 н/о н/о +24.0 +17.1 65 +28 +28 душно 1025.8 1024.9 +10.0 +24.1
12 24.08 СВ 4 н/о н/о +27.0 +16.8 54 +31 +31 душно 1022.8 1021.9 +10.0 +27.5
15 24.08 С 5 н/о н/о +22.7 +17.4 72 +28 +28 душно 1021.9 1021.0 +22.7 +27.5
18 24.08 С 5 н/о н/о +20.1 +16.7 81 +23 +23 комфорт 1022.2 1021.3 +20.1 +27.5
21 24.08 С 3 н/о н/о +17.6 +15.0 85 +18 +18 1021.9 1021.0 +17.5 +27.5
00 25.08 С 6 н/о н/о +17.6 +15.4 87 +17 +17 1020.1 1019.2 +17.5 +27.5
03 25.08 С 3 н/о н/о +16.0 +14.7 92 +15 +15 1019.2 1018.3 +16.0 +27.5
06 25.08 С 5 н/о н/о +18.2 +14.3 78 +18 +18 1019.7 1018.8 +15.9
09 25.08 С 5 н/о н/о +27.5 +12.1 38 +29 +29 жарко 1018.1 1017.2 +15.9 +27.5
12 25.08 С 4 н/о н/о +32.6 +11.5 28 +33 +33 жарко 1014.8 1013.9 +15.9 +32.6
15 25.08 С 2 н/о н/о +25.8 +17.8 61 +30 +30 душно 1014.9 1014.0 +25.8 +32.6
18 25.08 С 1 н/о н/о +20.4 +17.6 84 +25 +25 комфорт 1016.1 1015.2 +19.6 +32.6

 

Местоположение метеостанции Станция Charters Creek (Южная Африка): широта -28.20 долгота 32.42 высота над уровнем моря 9 м.

В архиве по умолчанию представлена погода на Станции Charters Creek за последнюю неделю. Архивные данные за месяц целиком и за предыдущие месяцы, начиная с января 2011 года, Вы можете получить, выбрав интересующий диапазон дат из раскрывающегося списка и нажав кнопку "Ввод!".


*Определитесь, кто Вы:
робот инопланетянин человек

Внимание! Время в таблицах - всемирное. Для получения местного времени необходимо прибавить поправку, которая равна 2 ч.

Смотрите также архив погоды в соседних городах и на ближайших метеорологических станциях:

Погода в Ричардс-Бей (Южная Африка) (68 км)
Погода в Мбазване (Южная Африка) (82 км)
Погода в Макатини (Южная Африка) (94 км)
Погода в Удунди (Южная Африка) (99 км)
Погода в Мтунзини (Южная Африка) (109 км)
Погода в Бабананго (Южная Африка) (119 км)
Погода в Понголе (Южная Африка) (119 км)
Погода в Мандини (Южная Африка) (145 км)
Погода в Ндзевейне (Свазиленд) (145 км)
Погода в Иерихоне (Свазиленд) (150 км)

Пояснения к столбцам:

Ветер - указаны скорость ветра в м/с - средняя за 10 мин, порывы в срок и между сроками (в фигурных скобках) и направление, откуда дует ветер: С - северный, СВ - северо-восточный, В - восточный, ЮВ - юго-восточный, Ю - южный, ЮЗ - юго-западный, З - западный, СЗ - северо-западный.
Видимость - горизонтальная дальность видимости в метрах или километрах. При видимости от 1 до 10 км при отсутствии осадков обычно наблюдается дымка, при ухудшении видимости до 1 км и менее - туман. В сухую погоду видимость может ухудшаться дымом, пылью или мглою.
Явления - указаны атмосферные явления, наблюдавшиеся в срок или в последний час перед сроком; фигурными скобками обозначены явления, наблюдавшиеся между сроками (за 1-3 часа до срока); квадратными скобками обозначены град или гололедные отложения с указанием их диаметра в мм.
Облачность - указаны через наклонную черту общая и нижняя облачность в баллах и высота нижней границы облаков в метрах; квадратными скобками обозначены формы облаков: Ci - перистые, Cs - перисто-слоистые, Cc - перисто-кучевые, Ac - высококучевые, As - высокослоистые, Sc - слоисто-кучевые, Ns - слоисто-дождевые, Cu - кучевые, Cb - кучево-дождевые. Подробнее классификацию облаков см. в Атласе облаков (PDF).
T - Температура воздуха - температура, измеренная на высоте 2 м над землей.
Td - Температура точки росы - температура, при понижении до которой содержащийся в воздухе водяной пар достигнет насыщения.
f - Относительная влажность воздуха - влажноcть воздуха, измеренная на высоте 2 м над землей.
Te - Эффективная температура - температура, которую ощущает одетый по сезону человек в тени. Характеристика душности погоды. При расчете учитывается влияние влажности воздуха и скорости ветра на теплоощущения человека.
Tes - Эффективная температура на солнце - температура, которую ощущает человек, с поправкой на солнечный нагрев. Характеристика знойности погоды. Зависит от высоты солнца над горизонтом, облачности и скорости ветра. Ночью, в пасмурную погоду, а также при ветре 12 м/с и более поправка равна нулю.
P - Атмосферное давление - приведенное к уровню моря атмосферное давление.
Po - Атмосферное давление - измеренное на уровне метеостанции атмосферное давление.
Tmin - Минимальная температура - минимум температуры воздуха на высоте 2 м над землей.
Tmax - Максимальная температура - максимум температуры воздуха на высоте 2 м над землей.
R - Количество осадков - Количество выпавших осадков за период времени, мм. При наведении курсора мыши на число - период времени, за который выпало указанное количество осадков.
R24 - Количество осадков - Количество выпавших осадков за 24 часа, мм.
S - Снежный покров - Высота снежного покрова, см. При наведении курсора мыши на число - состояние снежного покрова и степень покрытия местности в баллах.